Flag for France Weather past 2 weeks in Paris, France

Now
39 °F

Clear.


Feels Like: 32 °F
Forecast: 35 / 48 °F
Wind: 13 mph from West

Location: Villacoublay

Current Time: Mar 3, 2015 at 10:13:41 PM

Latest Report: Mar 3, 2015 at 10:00 PM


Visibility: N/A

Pressure: 30.21 "Hg

Humidity: 75%

Dew point: 32 °F

Location of ParisLocation

Historic Weather in Paris — Graph

°F

Paris temperature yesterday

Maximum temperature yesterday: 50 °F (at 12:00 AM)
Minimum temperature yesterday: 37 °F (at 11:30 PM)
Average temperature yesterday: 45 °F

Past Weeks' High & Low Weather Summary

 TemperatureHumidityPressure
High52 °F (Feb 23, 1:00 PM)100% (Feb 17, 4:30 AM)30.74 "Hg (Feb 17, 4:30 AM)
Low30 °F (Feb 22, 6:00 AM)43% (Feb 27, 4:00 PM)29.42 "Hg (Feb 23, 5:30 AM)
Average42 °F82%30.00 "Hg
* Reported Feb 16 8:00 PM — Mar 3 8:30 PM, Paris, Weather by CustomWeather, © 2015

Note: Actual official high and low records may vary slightly from our data, if they occured in-between our weather recording intervals... More about our weather records

Advertising

Paris weather history for previous 24 hours

 ConditionsComfort  
Time TempWeatherWind HumidityBarometerVisibility
8:30 PM
Tue, Mar 3
41 °FClear.10 mph76%30.21 "HgN/A
8:00 PM41 °FClear.10 mph76%30.18 "HgN/A
7:30 PM41 °FPassing clouds.10 mph81%30.18 "HgN/A
7:00 PM43 °FPassing clouds.9 mph81%30.15 "HgN/A
6:30 PM43 °FPassing clouds.8 mph87%30.15 "HgN/A
6:00 PM43 °FClear.9 mph87%30.12 "HgN/A
5:30 PM45 °FPartly sunny.10 mph87%30.12 "HgN/A
5:00 PM43 °FLight rain. Broken clouds.14 mph87%30.12 "Hg4 mi
4:30 PM46 °FRain. Fog.20 mph76%30.12 "Hg2 mi
4:00 PM48 °FLight rain. Partly sunny.14 mph76%30.09 "HgN/A
3:24 PM50 °FPartly sunny.14 mph67%30.09 "HgN/A
3:18 PM50 °FPartly sunny.14 mph71%30.09 "HgN/A
2:30 PM50 °FMostly cloudy.13 mph71%30.12 "HgN/A
1:54 PM48 °FPartly sunny.15 mph82%30.12 "HgN/A
1:30 PM48 °FCool.16 mph71%30.12 "HgN/A
10:00 AM43 °FClear.7 mph76%30.15 "HgN/A
9:30 AM41 °FClear.5 mph81%30.15 "HgN/A
9:00 AM39 °FClear.5 mph81%30.15 "HgN/A
8:30 AM37 °FClear.7 mph87%30.15 "HgN/A
8:00 AM36 °FClear.6 mph93%30.15 "HgN/A
7:30 AM36 °FClear.7 mph87%30.12 "HgN/A
7:00 AM36 °FClear.6 mph87%30.12 "HgN/A
6:30 AM36 °FClear.3 mph87%30.12 "HgN/A
6:00 AM36 °FClear.5 mph87%30.12 "HgN/A
5:30 AM37 °FClear.5 mph81%30.15 "HgN/A
5:00 AM37 °FClear.2 mph81%30.15 "HgN/A
4:30 AM37 °FClear.3 mph75%30.15 "HgN/A
3:30 AM37 °FClear.5 mph75%30.15 "HgN/A
3:00 AM37 °FClear.5 mph75%30.15 "HgN/A
2:30 AM37 °FClear.6 mph75%30.15 "HgN/A
2:00 AM37 °FClear.6 mph75%30.15 "HgN/A
1:30 AM37 °FClear.5 mph75%30.15 "HgN/A
1:00 AM37 °FClear.6 mph70%30.15 "HgN/A
12:30 AM37 °FClear.7 mph70%30.15 "HgN/A
12:00 AM39 °FClear.6 mph65%30.15 "HgN/A
11:30 PM
Mon, Mar 2
37 °FClear.6 mph70%30.15 "HgN/A
11:00 PM39 °FClear.6 mph61%30.15 "HgN/A
10:30 PM39 °FClear.5 mph61%30.15 "HgN/A
10:00 PM39 °FPassing clouds.5 mph61%30.12 "HgN/A
Weather by CustomWeather, © 2015

See weather overviewHow to use our weather pages